STARLINK-34314, 64146

Orbit data source: Space-Track

STARLINK-34314, 64146 is a payload satellite owned by SpaceX/Seattle (US) in SSO that was launched on Tue, 27 May 2025 UTC via an FALCON 9 launch vehicle from the Air Force Western Test Range (AFWTR). Payload-class satellites include a variety of spacecraft equipped with specific instruments for various scientific and technological missions. These include communications satellites like Starlink; space stations such as the ISS; scientific satellites like the Hubble; Earth observation satellites from companies like Planet Labs, Umbra, and HawkEye 360; GPS; miniature CubeSats for education and research; and military/defense satellites.

Loading next visibility...
Identifier
64146, 2025-112A
Orbit
SSO
Country
Flag of USUS
Related business
Manufacturer
SpaceX/Seattle
Mission
Operational Commercial Communications
Bus & Motor
STARLINK V2MO, Unknown motor
Mass
575 kg wet, ~530 kg dry
Launch date (UTC)
2025-05-27 (1 year ago)
Launch vehicle
FALCON 9
Launch site
Air Force Western Test Range (AFWTR)
Object type
Payload
Rocket body
Debris
Shape & HBR
Box + 2 Pan, 17.7 m
Radar Cross Section
36.964 m², Large (>1 m²)

Expand to show TLE details & history
Last TLE update: 16 hours ago

TLE from 16 hours ago
0 STARLINK-34314
1 64146U 25112A   26145.09599118 -.00006987  00000-0 -48088-3 0  9995
2 64146  97.4514 196.4363 0001384 208.0989 152.0164 15.05634197 54804
Epoch: 2026-05-25T02:18Z
TLE epoch observation values (Epoch: 2026-05-25T02:18:13.637Z)
Latitude
-0.00002°
Longitude
-80.80921°
Altitude
553.476 km
Speed
7.585 km/s
True Right ascension
13h 05m 44s
True Declination
0° 00' 00"
Sunlit
Object was in full shadow at epoch
Visualization orbit readout
Latitude
Unknown
Longitude
Unknown
Altitude
Unknown
Speed
Unknown
Apparent Right ascension
Unknown
Apparent Declination
Unknown
Sunlit
N/A
Visualization observer readout
Local Sidereal Time
03:50:34
Azimuth
Unknown
Elevation
Unknown
Doppler factor
Unknown
Orbital elements
Apogee altitude
547.505 km
Perigee altitude
545.588 km
Semi-major axis
6,924.684 km
Eccentricity
0.00014
Inclination
97.4514°
RAAN
196.4363°
Arg. of periapsis
208.0989°
True anomaly
152.02384°
Mean anomaly
152.0164°
Eccentric anomaly
152.02012°
Mean motion
3.76655 °/min
Orbital period
95.58 mins
BSTAR
-0.00048088
Loading maneuver chart data...
Computing Atmospheric mass density...
Loading historical data...
Loading historical data...
Loading historical data...
Loading historical data...
Loading historical data...
Loading historical data...
Loading historical data...

Documentation

Showing up to 5 results
|